[[{"header":{"parameterUnit":"m.s-1","parameterCategory":1,"la1":30.2991,"la2":30.254,"lo1":-89.0895,"lo2":-89.0444,"dy":0.0017,"dx":0.0017,"nx":28,"ny":28,"refTime":"2025-05-17T03:00:00:Z","depth":0,"parameterNumber":2,"parameterNumberName":"U-component_of_WINDS"},"data":[0,0,0,0,0,0,0,0,0,0,0,0,0,0,0,0,0,0,0,0,0,0,0,0,0,0,0,0,0,0,0,0,0,0,0,0,0,0,0,0,0,0,0,0,0,0,0,0,0,0,0,0,0,0,0,0,0,0,0.9835,0.9835,0,0.9867,0.9867,0.9867,0.9845,0.9844,0.9843,0.9842,0.9878,0.9879,0.9881,0,0,0,0,0,0,0,0,0,0,0,0,0,0.9757,0.9759,0.9835,0.9835,0.9836,0.9867,0.9867,0.9868,0.9845,0.9844,0.9843,0.9842,0.9877,0.9879,0.9881,0,0,0,0,0,0,0,0,0,0,0,0,0,0.979,0.976,0.9835,0.9828,0.9828,0.9867,0.9867,0.9868,0.9846,0.9844,0.9843,0.9841,0.9876,0.9879,0.9882,0.9929,0,0,0.989,0.9892,0,0,0,0,0,0,0,0,0.9789,0.9793,0.9829,0.9829,0.9829,0.985,0.9853,0.9888,0.9846,0.9839,0.9842,0.9841,0.987,0.9873,0.9883,0.9931,0.9932,0.9891,0.9892,0.9893,0.9894,0,0,0,0,0,0,0,0.9786,0.9792,0.9848,0.983,0.9829,0.9825,0.9828,0.9859,0.9863,0.984,0.9838,0.9842,0.987,0.988,0.9883,0.9933,0.989,0.9893,0.9895,0.9896,1.0021,1.0023,0,0,0,0,0,0,0.9784,0.979,0.9847,0.9849,0.9804,0.9827,0.9831,0.9845,0.9862,0.9863,0.9843,0.9841,0.9876,0.988,0.9884,0.994,0.9893,0.9896,0.9898,1.0019,1.0021,1.0023,0,0,0,0,0,0,0.9783,0.979,0.9845,0.9819,0.9826,0.983,0.9847,0.9846,0.9857,0.9865,0.9866,0.9853,0.9875,0.988,0.9918,0.9941,0.9897,0.99,1.0017,1.002,1.0022,1.0053,0,0,0,0,0,0,0.9781,0.9789,0.9807,0.9819,0.9827,0.9878,0.9848,0.9848,0.9861,0.9858,0.9874,0.9875,0.9874,0.9914,0.9921,0.9944,0.9902,1.0015,1.0019,1.0022,1.005,1.0057,1.0062,0,0,0,0,0,0.9778,0.9815,0.9808,0.9815,0.9849,0.9879,0.9884,0.988,0.9863,0.9881,0.9886,0.9875,0.9938,0.9918,0.9925,0.995,1.0014,1.0018,1.0021,1.0048,1.0055,1.0062,0,0,0,0,0,0,0.9806,0.9817,0.9809,0.9851,0.9864,0.9875,0.9898,0.9889,0.9908,0.9905,0.9901,0.9905,0.9944,0.9951,0.9928,0.9997,0.9973,0.9979,0.9991,0.9998,1.0004,1.0001,0.9904,0,0,0,0,0,0.9817,0.984,0.9848,0.9885,0.9891,0.9894,0.9907,0.9903,0.9917,0.9923,0.9931,0.9946,0.9968,0.9984,1.0005,1.0051,1.0054,1.0072,1.0078,1.0083,1.0088,1.0112,1.012,1.0035,1.0035,1.0035,0,0,0.984,0.9849,0.9864,0.989,0.99,0.9924,0.9899,0.9926,0.9944,0.9927,0.9962,0.9969,0.9985,1.0027,1.0046,1.0034,1.0112,1.0088,1.0091,1.0093,1.0116,1.0124,1.0132,1.0038,1.0037,1.0037,0,0,0.9895,0.9903,0.9934,0.9945,0.9959,0.996,0.9968,0.998,0.9984,1.0019,1.0007,1.0029,1.0069,1.008,1.0091,1.015,1.014,1.0157,1.0188,1.0211,1.0218,1.0224,1.0244,1.0252,1.0162,1.0162,1.0162,0,0.9922,0.9957,0.9952,0.9979,0.9991,0.9976,1.0008,1.0018,1.004,1.0049,1.0036,1.0084,1.0094,1.0138,1.0152,1.0162,1.0171,1.0155,1.0217,1.0223,1.0229,1.0248,1.0256,1.0164,1.0163,1.0163,1.0163,0,0.9989,1.0014,1.0038,1.0057,1.0072,1.0102,1.0101,1.0117,1.0112,1.0115,1.0151,1.0162,1.0185,1.0195,1.0191,1.0239,1.0231,1.0218,1.0194,1.0239,1.0257,1.0264,1.0166,1.0166,1.0165,1.0165,0,0,1.0063,1.0079,1.0087,1.0096,1.0111,1.013,1.0159,1.0181,1.0194,1.021,1.0234,1.0268,1.0255,1.0268,1.0265,1.0285,1.033,1.0269,1.027,1.028,1.0383,1.0392,1.0401,1.0324,1.0325,1.0326,1.0381,0,1.0118,1.0167,1.0163,1.021,1.0232,1.0218,1.0243,1.0256,1.0259,1.0279,1.0283,1.0306,1.0288,1.0295,1.0315,1.032,1.0351,1.0317,1.0346,1.0347,1.0342,1.0411,1.0421,1.0473,1.0388,1.0389,1.039,0,1.0188,1.0205,1.0253,1.0264,1.0274,1.0296,1.0316,1.0335,1.0349,1.035,1.0363,1.0357,1.0386,1.0361,1.0402,1.0378,1.039,1.0395,1.0397,1.0399,1.0371,1.0415,1.0489,1.0497,1.0402,1.0401,1.04,0,1.0236,1.0271,1.0304,1.0312,1.0326,1.0342,1.0349,1.0361,1.0374,1.0391,1.04,1.042,1.0432,1.0448,1.0447,1.0429,1.0488,1.0464,1.049,1.049,1.0503,1.0502,1.058,1.0511,1.0511,1.0511,1.0511,0,1.0297,1.0328,1.0326,1.0346,1.038,1.0375,1.0409,1.0414,1.0425,1.0446,1.0436,1.0456,1.0454,1.0475,1.0475,1.0508,1.0513,1.0515,1.0514,1.0516,1.0515,1.0523,1.052,1.0513,1.0513,1.0512,1.0512,0,1.0357,1.0357,1.0392,1.0402,1.0405,1.0429,1.0438,1.0458,1.046,1.0487,1.0493,1.0497,1.0521,1.0521,1.0549,1.0549,1.0589,1.0585,1.0585,1.0584,1.061,1.0607,1.0695,1.0706,1.0631,1.0631,1.0632,0,1.0396,1.0418,1.0431,1.0444,1.0451,1.0473,1.0486,1.0482,1.0496,1.0513,1.0531,1.0554,1.0571,1.061,1.0616,1.0637,1.0633,1.0662,1.0636,1.0636,1.0633,1.0631,1.0633,1.0667,1.0668,1.0669,1.0669,0,1.0465,1.0463,1.0482,1.0501,1.0517,1.0531,1.0545,1.0557,1.0555,1.0571,1.0595,1.0609,1.0637,1.0659,1.0679,1.0687,1.0678,1.0678,1.0685,1.0686,1.0684,1.0685,1.0598,1.0676,1.0675,1.0675,1.0674,1.0674,1.0515,1.0534,1.0545,1.0567,1.0576,1.0589,1.0608,1.0612,1.0631,1.0653,1.065,1.0676,1.0689,1.0715,1.0724,1.0745,1.0735,1.0746,1.0748,1.0751,1.0753,1.0681,1.0749,1.0749,1.0749,1.0749,1.0748,0,1.0583,1.0589,1.0609,1.0628,1.0644,1.0634,1.0648,1.0663,1.0686,1.0698,1.0716,1.0743,1.0765,1.0772,1.0793,1.0808,1.0805,1.0814,1.0813,1.0814,1.0761,1.0753,1.0816,1.0816,1.0816,1.0816,1.0816,1.0816,1.062,1.0652,1.0652,1.0689,1.0695,1.072,1.073,1.0741,1.0751,1.0782,1.0799,1.0803,1.0813,1.0835,1.0855,1.0856,1.0864,1.0875,1.0875,1.0825,1.0818,1.0812,1.0804,1.0877,1.0877,1.0926,1.0926,1.0927]},{"header":{"parameterUnit":"m.s-1","parameterCategory":1,"la1":30.2991,"la2":30.254,"lo1":-89.0895,"lo2":-89.0444,"dy":0.0017,"dx":0.0017,"nx":28,"ny":28,"refTime":"2025-05-17T03:00:00:Z","depth":0,"parameterNumber":3,"parameterNumberName":"V-component_of_WINDS"},"data":[0,0,0,0,0,0,0,0,0,0,0,0,0,0,0,0,0,0,0,0,0,0,0,0,0,0,0,0,0,0,0,0,0,0,0,0,0,0,0,0,0,0,0,0,0,0,0,0,0,0,0,0,0,0,0,0,0,0,4.502,4.502,0,4.5044,4.5044,4.5044,4.5018,4.5017,4.5016,4.5015,4.5036,4.5037,4.5039,0,0,0,0,0,0,0,0,0,0,0,0,0,4.4949,4.495,4.502,4.502,4.5021,4.5044,4.5044,4.5044,4.5018,4.5017,4.5016,4.5014,4.5035,4.5037,4.5039,0,0,0,0,0,0,0,0,0,0,0,0,0,4.4977,4.4951,4.502,4.501,4.501,4.5044,4.5044,4.5044,4.5018,4.5017,4.5015,4.5014,4.5035,4.5037,4.5039,4.5082,0,0,4.5046,4.5047,0,0,0,0,0,0,0,0,4.4975,4.4979,4.5012,4.5011,4.5011,4.5026,4.5026,4.5057,4.5019,4.5015,4.5015,4.5013,4.5034,4.5036,4.5043,4.5083,4.5084,4.5046,4.5047,4.5048,4.5049,0,0,0,0,0,0,0,4.4973,4.4978,4.5029,4.5012,4.5011,4.5004,4.5006,4.5032,4.5032,4.5015,4.5013,4.5017,4.5033,4.5041,4.5044,4.5085,4.5046,4.5048,4.5049,4.505,4.5161,4.5162,0,0,0,0,0,0,4.4973,4.4977,4.5029,4.503,4.4989,4.5006,4.5009,4.5023,4.5032,4.5032,4.5018,4.5015,4.5038,4.5041,4.5044,4.5096,4.5048,4.505,4.5052,4.5159,4.5161,4.5163,0,0,0,0,0,0,4.4972,4.4978,4.5028,4.5003,4.5009,4.5009,4.5025,4.5024,4.5032,4.5034,4.5034,4.5027,4.5037,4.5041,4.5073,4.5096,4.5051,4.5053,4.5157,4.516,4.5162,4.5199,0,0,0,0,0,0,4.497,4.4978,4.4995,4.5004,4.501,4.5057,4.5026,4.5025,4.5037,4.5033,4.5042,4.5042,4.5036,4.507,4.5076,4.5098,4.5055,4.5155,4.5158,4.5161,4.5195,4.5202,4.5208,0,0,0,0,0,4.4967,4.5004,4.4996,4.5002,4.5032,4.5059,4.5062,4.5056,4.5039,4.5055,4.5056,4.5042,4.5093,4.5074,4.5079,4.5103,4.5154,4.5157,4.5161,4.5193,4.5201,4.5208,0,0,0,0,0,0,4.4997,4.5005,4.4996,4.5037,4.5048,4.5054,4.5076,4.5065,4.508,4.5076,4.5067,4.5069,4.5103,4.5106,4.5085,4.5145,4.512,4.5125,4.5142,4.515,4.5156,4.5155,4.5057,0,0,0,0,0,4.5008,4.503,4.5036,4.5071,4.5077,4.5075,4.5087,4.5081,4.5091,4.5095,4.5098,4.5108,4.5126,4.5138,4.5155,4.5195,4.5197,4.5215,4.5221,4.5226,4.523,4.5252,4.526,4.5175,4.5175,4.5175,0,0,4.5032,4.5039,4.5053,4.5077,4.5085,4.5107,4.5079,4.5104,4.512,4.5098,4.5129,4.5132,4.5142,4.5178,4.5195,4.5182,4.5254,4.523,4.5234,4.5236,4.5256,4.5264,4.5271,4.5177,4.5177,4.5176,0,0,4.5086,4.5094,4.5124,4.5132,4.5144,4.5143,4.515,4.5159,4.516,4.5191,4.5175,4.5193,4.5225,4.5232,4.524,4.5297,4.5284,4.5302,4.5335,4.5356,4.5362,4.5368,4.5388,4.5396,4.5307,4.5307,4.5307,0,4.5113,4.5147,4.5141,4.5167,4.5177,4.516,4.5189,4.5197,4.5214,4.5221,4.5207,4.5246,4.5251,4.5289,4.5303,4.531,4.5317,4.5302,4.5362,4.5368,4.5373,4.5392,4.54,4.5309,4.5309,4.5309,4.5308,0,4.518,4.5204,4.5227,4.5244,4.5257,4.5285,4.5281,4.5295,4.5288,4.5288,4.5319,4.5325,4.5342,4.535,4.5343,4.5387,4.5379,4.5364,4.5338,4.5384,4.5402,4.5409,4.5312,4.5311,4.5311,4.531,0,0,4.5255,4.5268,4.5276,4.5284,4.5296,4.5313,4.5339,4.5357,4.5369,4.5381,4.5402,4.5429,4.5415,4.5424,4.5417,4.5436,4.548,4.5418,4.5418,4.5429,4.5528,4.554,4.5549,4.5471,4.5472,4.5474,4.5528,0,4.5309,4.5356,4.5351,4.5395,4.5416,4.54,4.5422,4.5431,4.5432,4.5449,4.5449,4.5468,4.5448,4.5453,4.547,4.5471,4.55,4.5467,4.549,4.5491,4.5489,4.5558,4.5571,4.5622,4.5535,4.5536,4.5537,0,4.5379,4.5395,4.5442,4.545,4.5459,4.5479,4.5495,4.5512,4.5521,4.552,4.553,4.552,4.5545,4.5519,4.5554,4.5531,4.554,4.5542,4.5544,4.5546,4.5517,4.5563,4.5638,4.5646,4.5547,4.5547,4.5546,0,4.5429,4.5461,4.5493,4.55,4.551,4.5525,4.553,4.5538,4.5549,4.5562,4.5569,4.5585,4.5594,4.5606,4.56,4.5581,4.5635,4.5608,4.5634,4.5635,4.5647,4.5646,4.5725,4.5652,4.5652,4.5652,4.5652,0,4.5491,4.552,4.5516,4.5536,4.5568,4.556,4.5592,4.5594,4.5601,4.5621,4.5606,4.5624,4.5616,4.5633,4.5628,4.5657,4.5661,4.566,4.5659,4.5662,4.5662,4.5668,4.5664,4.5654,4.5654,4.5653,4.5653,0,4.5552,4.555,4.5584,4.5591,4.5594,4.5617,4.5622,4.564,4.5639,4.5664,4.5669,4.5667,4.5687,4.5682,4.5703,4.57,4.5736,4.573,4.5734,4.5732,4.5758,4.5756,4.5844,4.5855,4.5775,4.5776,4.5776,0,4.5592,4.5614,4.5624,4.5636,4.5642,4.5662,4.5674,4.5667,4.5679,4.5691,4.5707,4.5726,4.574,4.5772,4.5772,4.5787,4.5782,4.5811,4.5784,4.5786,4.5782,4.5781,4.5783,4.5817,4.5818,4.5819,4.5819,0,4.5663,4.5661,4.5678,4.5695,4.571,4.5723,4.5734,4.5745,4.5738,4.5752,4.5773,4.5784,4.5806,4.5824,4.5838,4.5842,4.583,4.5828,4.5835,4.5838,4.584,4.5839,4.5749,4.5826,4.5825,4.5825,4.5824,4.5824,4.5714,4.5733,4.5743,4.5763,4.5771,4.5782,4.5799,4.5801,4.5818,4.5836,4.583,4.5853,4.5861,4.5879,4.5885,4.5902,4.589,4.59,4.5903,4.5905,4.5909,4.5837,4.5904,4.5904,4.5904,4.5904,4.5903,0,4.5785,4.579,4.5808,4.5825,4.5841,4.5828,4.584,4.5854,4.5874,4.5883,4.5898,4.5921,4.5938,4.5939,4.5956,4.5969,4.5964,4.5974,4.5973,4.5974,4.5918,4.5911,4.5978,4.5978,4.5978,4.5978,4.5978,4.5978,4.5823,4.5855,4.5854,4.5889,4.5893,4.5917,4.5924,4.5934,4.5941,4.5968,4.5983,4.5984,4.5989,4.6006,4.6021,4.602,4.6027,4.6039,4.6037,4.5985,4.5978,4.5971,4.5964,4.6041,4.6041,4.6091,4.6092,4.6092]}]]